Regional Weather Roundup
Issued by NWS

Home | Current Version | Previous Version | Text Only | Print | Product List | Glossary On
Versions: 1 2 3 4 5 6 7 8 9 10 11 12 13 14 15 16 17 18 19 20 21 22 23 24 25 26 27 28 29 30 31 32 33 34 35 36 37 38 39 40 41 42 43 44 45 46 47 48 49 50
607
ASUS44 KLIX 301401
RWRLA
LOUISIANA WEATHER ROUNDUP
NATIONAL WEATHER SERVICE NEW ORLEANS LA
800 AM CST FRI JAN 30 2015

NOTE: "FAIR" INDICATES FEW OR NO CLOUDS BELOW 12,000 FEET WITH NO
      SIGNIFICANT WEATHER AND/OR OBSTRUCTIONS TO VISIBILITY.
      SKY/WX - SKY CONDITION AND SIGNIFICANT WEATHER.
      TMP - AIR TEMPERATURE.    DP   - DEWPOINT TEMPERATURE.
      RH  - RELATIVE HUMIDITY.  PRES - PRESSURE.
      HX  - HEAT INDEX.         WCI  - WIND CHILL INDEX.

*  THESE STATIONS ARE NOT NWS OR FAA STATIONS AND ARE NOT UNDER
   NWS QUALITY CONTROL.

LAZ040-048-061>063-065-066-069-301500-
SOUTHEAST LOUISIANA

CITY           SKY/WX    TMP DP  RH WIND       PRES   REMARKS
N.O. AUDUBON     N/A     50  42  73 MISG        N/A
N.O. INTL ARPT PTSUNNY   48  39  71 N17       30.37R
N.O. LAKEFRONT SUNNY     50  40  68 N17       30.38R
N.O. DOWNTOWN* NOT AVBL
SLIDELL        MOSUNNY   47  38  71 N15       30.37R
BATON ROUGE    MOSUNNY   45  33  63 N10       30.41R
BOOTHVILLE     SUNNY     53  46  77 N9G18     30.33R
BELLE CHASSE   PTSUNNY   50  39  66 N12G20    30.35R
BOGALUSA*        N/A     45  37  73 N12       30.41R
GALLIANO*      NOT AVBL
NEW ROADS*     NOT AVBL
GONZALES*      NOT AVBL
HAMMOND*       NOT AVBL
HOUMA*         SUNNY     48  43  81 N14       30.35R
PORT FOURCHON* SUNNY     54  45  71 N15       30.36R

$$

LAZ041-044-053-054-301500-
SOUTHWEST LOUISIANA

CITY           SKY/WX    TMP DP  RH WIND       PRES   REMARKS
LAKE CHARLES   PTSUNNY   46  36  68 NE13      30.40R
LAFAYETTE      MOSUNNY   45  36  70 NE13      30.40R
PATTERSON      SUNNY     48  37  66 NE17      30.37R
SALT POINT       N/A     50  41  71 NE7       30.34R
NEW IBERIA     MOSUNNY   47  37  68 NE16G22   30.40R
CHENAULT AIRPK SUNNY     45  36  70 NE12G17   30.41R

$$

LAZ027-028-301500-
CENTRAL LOUISIANA

CITY           SKY/WX    TMP DP  RH WIND       PRES   REMARKS
FORT POLK      CLEAR     42  34  73 N10       30.42R
ALEXANDRIA INT SUNNY     43  32  65 NE8       30.45R
ALEXANDRIA     SUNNY     43  31  62 VRB6      30.45R

$$

LAZ001-002-301500-
NORTHWEST LOUISIANA

CITY           SKY/WX    TMP DP  RH WIND       PRES   REMARKS
SHREVEPORT     MOCLDY    42  31  64 NE10      30.48R
BARKSDALE AFB  CLEAR     39  30  71 NE5       30.49R
DTN SHREVEPORT CLEAR     39  30  70 NE6       30.49R WCI  35

$$

LAZ014-016-301500-
NORTHEAST LOUISIANA

CITY           SKY/WX    TMP DP  RH WIND       PRES   REMARKS
MONROE         CLEAR     39  31  72 N10       30.50R WCI  32
TALLULAH       MOSUNNY   40  32  73 N7        30.48R

$$




USA.gov is the U.S. government's official web portal to all federal, state and local government web resources and services.